• In Italy
  • List of Countries
  • For 7 days
  • Water Temperature
  • Satellite Maps
  • Weather Map
  • Weather Widgets
  • user-avatar
    Login

    Hourly Weather Shkoder

    Today, 23 September, Saturday

    Time Temperature Precipitation Wind Pressure Humidity
    00:00 +12°C° 0 mm 2 mps 744 mmHg 72%
    01:00 +12°C° 0 mm 2 mps 744 mmHg 71%
    02:00 +12°C° 0 mm 2 mps 744 mmHg 71%
    03:00 +12°C° 0 mm 2 mps 744 mmHg 70%
    04:00 +12°C° 0 mm 2 mps 743 mmHg 69%
    05:00 +13°C° 0 mm 2 mps 744 mmHg 66%
    06:00 +14°C° 0 mm 2 mps 744 mmHg 63%
    07:00 +15°C° 0 mm 2 mps 744 mmHg 59%
    08:00 +18°C° 0 mm 1 mps 744 mmHg 53%
    09:00 +20°C° 0 mm 1 mps 744 mmHg 47%
    10:00 +22°C° 0 mm 1 mps 744 mmHg 41%
    11:00 +23°C° 0 mm 1 mps 743 mmHg 42%
    12:00 +23°C° 0 mm 2 mps 743 mmHg 42%
    13:00 +24°C° 0 mm 2 mps 743 mmHg 42%
    14:00 +23°C° 0 mm 2 mps 743 mmHg 46%
    15:00 +23°C° 0 mm 2 mps 742 mmHg 50%
    16:00 +21°C° 0 mm 2 mps 742 mmHg 54%
    17:00 +19°C° 0 mm 2 mps 742 mmHg 63%
    18:00 +18°C° 0 mm 1 mps 742 mmHg 73%
    19:00 +15°C° 0 mm 1 mps 743 mmHg 83%
    20:00 +15°C° 0 mm 1 mps 743 mmHg 83%
    21:00 +15°C° 0 mm 1 mps 743 mmHg 83%
    22:00 +15°C° 0 mm 1 mps 743 mmHg 84%
    23:00 +15°C° 0 mm 1 mps 743 mmHg 83%

    Tomorrow, 24 September, Sunday

    Time Temperature Precipitation Wind Pressure Humidity
    00:00 +14°C° 0 mm 1 mps 743 mmHg 81%
    01:00 +14°C° 0 mm 1 mps 743 mmHg 80%
    02:00 +15°C° 0 mm 1 mps 742 mmHg 77%
    03:00 +15°C° 0 mm 1 mps 742 mmHg 75%
    04:00 +15°C° 0 mm 1 mps 742 mmHg 72%
    05:00 +16°C° 0 mm 1 mps 742 mmHg 69%
    06:00 +16°C° 0 mm 1 mps 742 mmHg 66%
    07:00 +18°C° 0 mm 1 mps 742 mmHg 62%
    08:00 +20°C° 0 mm 1 mps 742 mmHg 56%
    09:00 +22°C° 0 mm 1 mps 742 mmHg 49%
    10:00 +24°C° 0 mm 1 mps 742 mmHg 42%
    11:00 +24°C° 0 mm 1 mps 742 mmHg 41%
    12:00 +25°C° 0 mm 2 mps 742 mmHg 40%
    13:00 +25°C° 0 mm 2 mps 741 mmHg 38%
    14:00 +25°C° 0.1 mm 2 mps 741 mmHg 42%
    15:00 +24°C° 0.1 mm 2 mps 741 mmHg 45%
    16:00 +23°C° 0.1 mm 2 mps 741 mmHg 49%
    17:00 +22°C° 0 mm 1 mps 741 mmHg 55%
    18:00 +20°C° 0 mm 1 mps 741 mmHg 61%
    19:00 +18°C° 0 mm 1 mps 741 mmHg 68%
    20:00 +16°C° 0 mm 1 mps 741 mmHg 68%
    21:00 +16°C° 0 mm 1 mps 741 mmHg 67%
    22:00 +16°C° 0 mm 1 mps 742 mmHg 67%
    23:00 +16°C° 0 mm 1 mps 741 mmHg 67%

    Day after tomorrow, 25 September, Monday

    Time Temperature Precipitation Wind Pressure Humidity
    00:00 +15°C° 0 mm 2 mps 741 mmHg 67%
    01:00 +15°C° 0 mm 2 mps 741 mmHg 66%
    02:00 +15°C° 0 mm 2 mps 741 mmHg 66%
    03:00 +15°C° 0 mm 2 mps 741 mmHg 67%
    04:00 +15°C° 0 mm 2 mps 741 mmHg 67%
    05:00 +15°C° 0 mm 2 mps 741 mmHg 66%
    06:00 +16°C° 0 mm 2 mps 741 mmHg 65%
    07:00 +17°C° 0 mm 2 mps 741 mmHg 64%
    08:00 +19°C° 0 mm 2 mps 741 mmHg 58%
    09:00 +21°C° 0 mm 2 mps 741 mmHg 52%
    10:00 +24°C° 0 mm 1 mps 741 mmHg 46%
    11:00 +24°C° 0.2 mm 2 mps 741 mmHg 45%
    12:00 +25°C° 0.2 mm 2 mps 741 mmHg 45%
    13:00 +25°C° 0.2 mm 2 mps 740 mmHg 44%
    14:00 +24°C° 0.5 mm 2 mps 740 mmHg 49%
    15:00 +24°C° 0.5 mm 2 mps 740 mmHg 53%
    16:00 +23°C° 0.5 mm 2 mps 740 mmHg 58%
    17:00 +20°C° 0.5 mm 2 mps 741 mmHg 63%
    18:00 +20°C° 0.5 mm 1 mps 741 mmHg 69%
    19:00 +19°C° 0.5 mm 1 mps 741 mmHg 74%
    20:00 +19°C° 0.5 mm 1 mps 741 mmHg 76%
    21:00 +18°C° 0.5 mm 1 mps 741 mmHg 77%
    22:00 +17°C° 0.5 mm 2 mps 741 mmHg 79%
    23:00 +17°C° 0.3 mm 2 mps 741 mmHg 79%

    26 September, Tuesday

    Time Temperature Precipitation Wind Pressure Humidity
    00:00 +17°C° 0.3 mm 2 mps 741 mmHg 79%
    01:00 +16°C° 0.3 mm 2 mps 741 mmHg 80%
    02:00 +16°C° 0.2 mm 2 mps 741 mmHg 80%
    03:00 +16°C° 0.2 mm 2 mps 741 mmHg 80%
    04:00 +16°C° 0.2 mm 2 mps 741 mmHg 80%
    05:00 +16°C° 0.2 mm 2 mps 741 mmHg 79%
    06:00 +17°C° 0.2 mm 2 mps 741 mmHg 77%
    07:00 +17°C° 0.2 mm 2 mps 741 mmHg 75%
    08:00 +19°C° 0.1 mm 2 mps 742 mmHg 68%
    09:00 +20°C° 0.1 mm 2 mps 742 mmHg 60%
    10:00 +23°C° 0.1 mm 1 mps 742 mmHg 53%
    11:00 +24°C° 0 mm 2 mps 741 mmHg 50%
    12:00 +24°C° 0 mm 2 mps 741 mmHg 47%
    13:00 +25°C° 0 mm 2 mps 741 mmHg 45%
    14:00 +25°C° 0.1 mm 2 mps 741 mmHg 47%
    15:00 +24°C° 0.1 mm 2 mps 741 mmHg 49%
    16:00 +24°C° 0.1 mm 2 mps 741 mmHg 51%
    17:00 +21°C° 0 mm 2 mps 741 mmHg 56%
    18:00 +19°C° 0 mm 2 mps 742 mmHg 62%
    19:00 +18°C° 0 mm 2 mps 742 mmHg 67%
    20:00 +17°C° 0 mm 2 mps 742 mmHg 68%
    21:00 +17°C° 0 mm 2 mps 742 mmHg 68%
    22:00 +17°C° 0 mm 2 mps 742 mmHg 68%
    23:00 +16°C° 0 mm 2 mps 742 mmHg 69%

    27 September, Wednesday

    Time Temperature Precipitation Wind Pressure Humidity
    00:00 +16°C° 0 mm 2 mps 742 mmHg 69%
    01:00 +16°C° 0 mm 2 mps 742 mmHg 70%
    02:00 +15°C° 0 mm 2 mps 742 mmHg 71%
    03:00 +15°C° 0 mm 2 mps 742 mmHg 72%
    04:00 +15°C° 0 mm 2 mps 742 mmHg 73%
    05:00 +16°C° 0 mm 2 mps 742 mmHg 71%
    06:00 +16°C° 0 mm 2 mps 743 mmHg 70%
    07:00 +17°C° 0 mm 2 mps 743 mmHg 69%
    08:00 +19°C° 0 mm 2 mps 743 mmHg 62%
    09:00 +21°C° 0 mm 2 mps 743 mmHg 55%
    10:00 +24°C° 0 mm 1 mps 743 mmHg 48%
    11:00 +25°C° 0 mm 1 mps 743 mmHg 47%
    12:00 +25°C° 0 mm 2 mps 743 mmHg 45%
    13:00 +26°C° 0 mm 2 mps 743 mmHg 43%
    14:00 +25°C° 0.1 mm 2 mps 743 mmHg 46%
    15:00 +25°C° 0.1 mm 2 mps 743 mmHg 49%
    16:00 +24°C° 0.1 mm 2 mps 743 mmHg 51%
    17:00 +22°C° 0 mm 1 mps 743 mmHg 56%
    18:00 +21°C° 0 mm 1 mps 743 mmHg 61%
    19:00 +19°C° 0 mm 1 mps 743 mmHg 66%
    20:00 +19°C° 0 mm 1 mps 743 mmHg 66%
    21:00 +18°C° 0 mm 1 mps 743 mmHg 67%
    22:00 +18°C° 0 mm 1 mps 744 mmHg 67%
    23:00 +17°C° 0.1 mm 2 mps 743 mmHg 69%

    28 September, Thursday

    Time Temperature Precipitation Wind Pressure Humidity
    00:00 +17°C° 0.1 mm 2 mps 743 mmHg 70%
    01:00 +17°C° 0.1 mm 2 mps 743 mmHg 71%
    02:00 +16°C° 0.1 mm 2 mps 743 mmHg 72%
    03:00 +16°C° 0.1 mm 2 mps 743 mmHg 73%
    04:00 +16°C° 0.1 mm 2 mps 743 mmHg 74%
    05:00 +17°C° 0.1 mm 2 mps 743 mmHg 74%
    06:00 +17°C° 0.1 mm 2 mps 744 mmHg 74%
    07:00 +17°C° 0.1 mm 2 mps 744 mmHg 74%
    08:00 +19°C° 0.1 mm 2 mps 744 mmHg 68%
    09:00 +20°C° 0.1 mm 2 mps 744 mmHg 62%
    10:00 +23°C° 0.1 mm 2 mps 744 mmHg 56%
    11:00 +24°C° 0.1 mm 2 mps 743 mmHg 54%
    12:00 +24°C° 0.1 mm 2 mps 743 mmHg 52%
    13:00 +25°C° 0.1 mm 2 mps 743 mmHg 50%
    14:00 +25°C° 0.2 mm 2 mps 743 mmHg 52%
    15:00 +24°C° 0.2 mm 2 mps 743 mmHg 53%
    16:00 +24°C° 0.2 mm 2 mps 742 mmHg 55%
    17:00 +21°C° 0.2 mm 2 mps 743 mmHg 61%
    18:00 +19°C° 0.2 mm 2 mps 743 mmHg 67%
    19:00 +18°C° 0.2 mm 2 mps 743 mmHg 73%
    20:00 +17°C° 0.1 mm 2 mps 743 mmHg 75%
    21:00 +17°C° 0.1 mm 2 mps 743 mmHg 77%
    22:00 +17°C° 0.1 mm 2 mps 743 mmHg 79%
    23:00 +16°C° 0.1 mm 2 mps 743 mmHg 80%
    Show more